Home   Weather   Al Jizah   Past weeks

Flag for Egypt Past Weather in Al Jizah, Egypt — Yesterday and Last 2 Weeks

Now
82 °F

Sunny.


Feels Like: 80 °F
Forecast: 58 / 89 °F
Wind: 8 mph from Northeast

Location: Cairo Airport

Current Time: Apr 27, 2017 at 3:25:05 pm

Latest Report: Apr 27, 2017 at 3:00 pm


Visibility: 10 mi

Pressure: 29.92 "Hg

Humidity: 23%

Dew Point: 41 °F

Location of Al JizahLocation

Past Weather in Al Jizah — Graph

°F

Al Jizah Temperature Yesterday

Maximum temperature yesterday: 82 °F (at 4:00 pm)
Minimum temperature yesterday: 61 °F (at 5:00 am)
Average temperature yesterday: 70 °F

High & Low Weather Summary for the Past Weeks

 TemperatureHumidityPressure
High100 °F (Apr 21, 1:00 pm)100% (Apr 17, 4:00 am)30.12 "Hg (Apr 17, 4:00 am)
Low57 °F (Apr 17, 4:00 am)8% (Apr 21, 1:00 pm)29.65 "Hg (Apr 12, 4:34 pm)
Average73 °F47%29.98 "Hg
* Reported Apr 12 2:00 pm — Apr 27 2:00 pm, Al Jizah, Weather by CustomWeather, © 2017

Note: Actual official high and low records may vary slightly from our data, if they occured in-between our weather recording intervals... More about our weather records

Advertising

Al Jizah Weather History for the Previous 24 Hours

Scroll right to see more
 ConditionsComfort  
Time TempWeatherWind HumidityBarometerVisibility
2:00 pm
Thu, Apr 27
81 °FSunny.7 mph24%29.95 "Hg10 mi
1:30 pm81 °FSunny.7 mph24%29.98 "Hg10 mi
1:00 pm79 °FSunny.6 mph24%29.98 "Hg10 mi
12:30 pm79 °FSunny.5 mph28%30.01 "Hg10 mi
12:00 pm77 °FSunny.7 mph32%30.01 "Hg10 mi
11:30 am75 °FSunny.5 mph34%30.04 "Hg10 mi
11:00 am75 °FSunny.5 mph34%30.04 "Hg10 mi
10:30 am72 °FSunny.7 mph41%30.04 "Hg10 mi
10:00 am72 °FSunny.7 mph41%30.04 "Hg10 mi
9:30 am70 °FSunny.9 mph53%30.01 "Hg10 mi
9:00 am70 °FSunny.9 mph53%30.01 "Hg10 mi
8:30 am66 °FSunny.10 mph68%30.01 "Hg10 mi
8:00 am66 °FSunny.10 mph68%30.01 "Hg10 mi
7:30 am64 °FSunny.8 mph73%30.01 "Hg10 mi
6:30 am63 °FSunny.6 mph83%29.98 "Hg10 mi
5:30 am63 °FSunny.5 mph77%29.98 "Hg10 mi
5:00 am63 °FClear.10 mph77%29.98 "Hg10 mi
4:30 am64 °FClear.7 mph73%29.98 "Hg10 mi
3:30 am64 °FClear.7 mph78%29.98 "Hg10 mi
3:00 am64 °FClear.7 mph78%29.98 "Hg10 mi
2:30 am64 °FClear.6 mph73%29.98 "Hg10 mi
2:00 am64 °FClear.8 mph73%29.98 "Hg10 mi
1:30 am64 °FClear.9 mph73%29.98 "Hg10 mi
1:00 am66 °FClear.8 mph68%30.01 "Hg10 mi
12:30 am66 °FClear.8 mph64%30.01 "Hg10 mi
12:00 am66 °FClear.9 mph64%30.01 "Hg10 mi
11:30 pm
Wed, Apr 26
66 °FClear.10 mph60%30.01 "Hg10 mi
11:00 pm68 °FClear.13 mph53%30.01 "Hg10 mi
10:30 pm68 °FClear.13 mph53%30.04 "Hg10 mi
10:00 pm70 °FClear.16 mph46%30.04 "Hg10 mi
9:30 pm70 °FClear.16 mph46%30.04 "Hg10 mi
9:00 pm72 °FClear.16 mph41%30.01 "Hg10 mi
8:00 pm73 °FClear.14 mph36%30.01 "Hg10 mi
7:30 pm73 °FClear.18 mph36%29.98 "Hg10 mi
7:00 pm75 °FClear.14 mph31%29.98 "Hg10 mi
6:30 pm77 °FClear.14 mph30%29.95 "Hg10 mi
6:00 pm79 °FSunny.10 mph26%29.95 "Hg10 mi
5:30 pm79 °FSunny.12 mph24%29.95 "Hg10 mi
5:00 pm81 °FSunny.14 mph24%29.95 "Hg10 mi
4:30 pm81 °FSunny.14 mph24%29.95 "Hg10 mi
4:00 pm82 °FSunny.13 mph25%29.95 "Hg10 mi
3:30 pm81 °FSunny.13 mph26%29.95 "Hg10 mi
3:00 pm81 °FSunny.13 mph28%29.95 "Hg10 mi
Weather by CustomWeather, © 2017

See weather overviewHow to use our weather pages